Dillon, MT

6:15 AM MDT on August 24, 2016 (GMT -0600)
Dillon

Weather History for KDLN - December, 2013

Change the Weather History Date:

Saturday, December 28, 2013

  Actual Average Record
Temperature  
Mean Temperature 24 °F 21 °F  
Max Temperature 37 °F 30 °F 52 °F (1945)
Min Temperature 11 °F 11 °F -24 °F (1978)
Degree Days  
Heating Degree Days 41    
Month to date heating degree days 1301  
Since 1 July heating degree days 3230  
Cooling Degree Days 0    
Month to date cooling degree days 0  
Year to date cooling degree days 247  
Moisture  
Dew Point 17 °F    
Average Humidity 67    
Maximum Humidity 84    
Minimum Humidity 49    
Precipitation  
Precipitation 0.00 in 0.00 in 0.30 in (1973)
Month to date precipitation 0.14 0.25  
Year to date precipitation 9.95 10.55  
Snow  
Snow 0.00 in - - ()
Snow Depth 0.00 in    
Sea Level Pressure  
Sea Level Pressure 30.23 in    
Wind  
Wind Speed 8 mph (SSW)    
Max Wind Speed 18 mph    
Max Gust Speed 22 mph    
Visibility 10 miles    
Events      
T = Trace of Precipitation, MM = Missing Value Source: NWS Daily Summary

Daily Weather History Graph

Daily Weather History Graph

Search for Another Location

Airport or City:

Trip Planner

Search our weather history database for the weather conditions in past years. The results will help you decide how hot, cold, wet, or windy it might be!

Date:

Astronomy

Dec. 28, 2013 Rise Set
Actual Time 8:08 AM MST 4:55 PM MST
Civil Twilight 7:35 AM MST 5:29 PM MST
Nautical Twilight 6:57 AM MST 6:06 PM MST
Astronomical Twilight 6:21 AM MST 6:42 PM MST
Moon 3:43 AM MST (12/28) 1:54 PM MST (12/28)
Length of Visible Light 9h 54m
Length of Day
8h 46m
Waning Crescent, 18% of the Moon is Illuminated
Dec 28
Waning Crescent
Jan 1
New
Jan 7
First Quarter
Jan 15
Full
Jan 23
Last Quarter

Hourly Weather History & Observations

Time (MST) Temp. Windchill Dew Point Humidity Pressure Visibility Wind Dir Wind Speed Gust Speed Precip Events Conditions
12:53 AM 30.9 °F 20.2 °F 16.0 °F 54% 30.01 in 10.0 mi South 15.0 mph - N/A   Scattered Clouds
1:53 AM 30.9 °F 19.8 °F 15.1 °F 52% 29.99 in 10.0 mi SSW 16.1 mph - N/A   Clear
2:53 AM 30.9 °F 20.2 °F 15.1 °F 52% 30.03 in 10.0 mi SSW 15.0 mph - N/A   Overcast
3:53 AM 30.9 °F 20.7 °F 16.0 °F 54% 30.05 in 10.0 mi SSW 13.8 mph - N/A   Overcast
4:53 AM 30.9 °F 23.5 °F 16.0 °F 54% 30.08 in 10.0 mi South 8.1 mph - N/A   Overcast
5:53 AM 36.0 °F 27.5 °F 19.9 °F 52% 30.09 in 10.0 mi West 12.7 mph - N/A   Overcast
6:53 AM 34.0 °F 23.4 °F 18.0 °F 52% 30.13 in 10.0 mi West 17.3 mph - N/A   Clear
7:53 AM 28.9 °F 19.2 °F 19.0 °F 67% 30.19 in 10.0 mi West 11.5 mph - N/A   Clear
8:53 AM 30.0 °F - 17.1 °F 59% 30.21 in 10.0 mi Calm Calm - N/A   Mostly Cloudy
9:53 AM 30.0 °F 24.1 °F 19.0 °F 64% 30.22 in 10.0 mi South 5.8 mph - N/A   Overcast
10:53 AM 33.1 °F 25.5 °F 19.9 °F 59% 30.25 in 10.0 mi NE 9.2 mph - N/A   Overcast
11:15 AM 28.0 °F 17.0 °F 18.0 °F 66% 30.18 in 10.0 mi ENE 13.8 mph - N/A   Overcast
11:53 AM 28.9 °F 19.2 °F 18.0 °F 64% 30.25 in 10.0 mi ENE 11.5 mph - N/A   Overcast
12:53 PM 30.0 °F 22.4 °F 19.0 °F 64% 30.26 in 10.0 mi NNE 8.1 mph - N/A   Overcast
1:53 PM 28.0 °F 18.6 °F 19.0 °F 69% 30.26 in 10.0 mi NE 10.4 mph - N/A   Overcast
2:53 PM 28.9 °F 21.9 °F 19.9 °F 69% 30.26 in 10.0 mi NNE 6.9 mph - N/A   Overcast
3:53 PM 28.9 °F 22.8 °F 19.0 °F 67% 30.29 in 10.0 mi North 5.8 mph - N/A   Mostly Cloudy
4:53 PM 26.1 °F 20.5 °F 17.1 °F 69% 30.31 in 10.0 mi ENE 4.6 mph - N/A   Overcast
5:53 PM 24.1 °F 19.7 °F 16.0 °F 71% 30.31 in 10.0 mi North 3.5 mph - N/A   Mostly Cloudy
6:53 PM 21.0 °F - 15.1 °F 78% 30.35 in 10.0 mi Calm Calm - N/A   Mostly Cloudy
7:53 PM 19.0 °F 13.9 °F 15.1 °F 85% 30.39 in 10.0 mi South 3.5 mph - N/A   Mostly Cloudy
8:53 PM 18.0 °F 12.7 °F 14.0 °F 84% 30.40 in 10.0 mi SW 3.5 mph - N/A   Clear
9:53 PM 18.0 °F 9.8 °F 14.0 °F 84% 30.40 in 10.0 mi SSE 5.8 mph - N/A   Clear
10:53 PM 17.1 °F 6.6 °F 10.9 °F 77% 30.40 in 10.0 mi SSW 8.1 mph - N/A   Clear
11:53 PM 12.9 °F 5.2 °F 10.9 °F 92% 30.43 in 10.0 mi SW 4.6 mph - N/A   Clear